Regional Weather Roundup
Issued by NWS Tiyan, Guam

Home | Current Version | Previous Version | Text Only | Print | Product List | Glossary On
Versions: 1 2 3 4 5 6 7 8 9 10 11 12 13 14 15 16 17 18 19 20 21 22 23 24 25 26 27
000
ASGM40 PGUM 250912
RWRGUM
WEATHER ROUNDUP FOR THE MARIANAS
NATIONAL WEATHER SERVICE TIYAN GU
700 PM CHST TUE APR 25 2017

GUZ001>004-251000-
MARIANA ISLANDS-

CITY           SKY/WX    TMP DP  RH WIND       PRES   REMARKS
GUAM AIRPORT   LGT RAIN  79  77  94 E7        29.90R
ANDERSEN AFB   LGT RAIN  77  75  94 SE8       29.91R
ROTA AIRPORT   CLOUDY    79  75  89 E10       29.90R
TINIAN AP      MOCLDY    79  73  83 SE6       29.89R
SAIPAN AP      PTCLDY    82  75  78 E15G23    29.90R

$$





USA.gov is the U.S. government's official web portal to all federal, state and local government web resources and services.